Weather History for VTUU - November, 2012

Change the Weather History Date:

Saturday, November 3, 2012

  Actual Average Record
Temperature  
Mean Temperature 82 °F -  
Max Temperature 95 °F 87 °F - ()
Min Temperature 70 °F 68 °F - ()
Cooling Degree Days 18    
Growing Degree Days 32 (Base 50)    
Moisture  
Dew Point 69 °F    
Average Humidity 66    
Maximum Humidity 88    
Minimum Humidity 37    
Precipitation  
Precipitation 0.00 in 0.03 in - ()
Sea Level Pressure  
Sea Level Pressure 29.82 in    
Wind  
Wind Speed 2 mph ()    
Max Wind Speed 4 mph    
Max Gust Speed -    
Visibility 5.2 miles    
Events      
T = Trace of Precipitation, MM = Missing Value Source: Averaged Metar Reports

Daily Weather History Graph

Daily Weather History Graph

Search for Another Location

Airport or City:

Trip Planner

Search our weather history database for the weather conditions in past years. The results will help you decide how hot, cold, wet, or windy it might be!

Date:

Astronomy

Nov. 03, 2012 Rise Set
Actual Time 5:57 AM ICT 5:30 PM ICT
Civil Twilight 5:35 AM ICT 5:52 PM ICT
Nautical Twilight 5:09 AM ICT 6:18 PM ICT
Astronomical Twilight 4:44 AM ICT 6:43 PM ICT
Moon 8:58 PM ICT (11/3) 9:21 AM ICT (11/3)
Length of Visible Light 12h 17m
Length of Day
11h 33m
Waning Gibbous, 84% of the Moon is Illuminated
Nov 3
Waning Gibbous
Nov 7
Last Quarter
Nov 14
New
Nov 20
First Quarter
Nov 28
Full

Hourly Weather History & Observations

Time (ICT) Temp. Heat Index Dew Point Humidity Pressure Visibility Wind Dir Wind Speed Gust Speed Precip Events Conditions
12:00 AM 75.2 °F - 69.8 °F 83% 29.83 in 5.6 mi NE 3.5 mph - N/A   Unknown
1:00 AM 75 °F - 70 °F 79% 29.81 in 6 mi NE 2.3 mph - -   Mist
1:00 AM 75.2 °F - 69.8 °F 83% 29.80 in 5.6 mi NE 2.3 mph - N/A   Unknown
2:00 AM 73.4 °F - 68.0 °F 83% 29.80 in 5.6 mi North 2.3 mph - N/A   Unknown
4:00 AM 71.6 °F - 68.0 °F 88% 29.80 in 5.0 mi North 3.5 mph - N/A   Unknown
5:00 AM 71.6 °F - 68.0 °F 88% 29.83 in 5.0 mi North 2.3 mph - N/A   Unknown
6:00 AM 71.6 °F - 68.0 °F 88% 29.83 in 3.1 mi Calm Calm - N/A   Mist
6:30 AM 71.6 °F - 68.0 °F 88% 29.83 in 3.1 mi NNW 2.3 mph - N/A   Mist
7:00 AM 72 °F - 69 °F 86% 29.86 in 4 mi NNW 3.5 mph - -   Mist
7:00 AM 71.6 °F - 68.0 °F 88% 29.86 in 3.7 mi NNW 3.5 mph - N/A   Unknown
8:00 AM 77.0 °F - 69.8 °F 78% 29.86 in 3.7 mi NNE 2.3 mph - N/A   Unknown
9:00 AM 80.6 °F 83.9 °F 69.8 °F 70% 29.89 in 5.0 mi NNW 1.2 mph - N/A   Unknown
10:00 AM 84.2 °F 89.6 °F 71.6 °F 66% 29.89 in 5.6 mi SSW 2.3 mph - N/A   Unknown
11:00 AM 87.8 °F 91.4 °F 68.0 °F 52% 29.86 in 5.6 mi WSW 2.3 mph - N/A   Scattered Clouds
12:00 PM 91.4 °F 96.8 °F 69.8 °F 49% 29.83 in 5.6 mi South 2.3 mph - N/A   Scattered Clouds
1:00 PM 90 °F - 67 °F 37% 29.79 in 6 mi South 3.5 mph - -   Partly Cloudy
1:00 PM 91.4 °F 95.4 °F 68.0 °F 46% 29.80 in 6.2 mi South 3.5 mph - N/A   Scattered Clouds
2:00 PM 91.4 °F 94.0 °F 66.2 °F 43% 29.77 in 6.2 mi NNW 2.3 mph - N/A   Scattered Clouds
3:00 PM 93.2 °F 97.7 °F 68.0 °F 44% 29.74 in 6.2 mi ENE 2.3 mph - N/A   Scattered Clouds
4:00 PM 91.4 °F 94.0 °F 66.2 °F 43% 29.77 in 6.2 mi WNW 2.3 mph - N/A   Scattered Clouds
5:00 PM 89.6 °F 93.4 °F 68.0 °F 49% 29.77 in 5.6 mi West 2.3 mph - N/A   Scattered Clouds
5:30 PM 87.8 °F 91.4 °F 68.0 °F 52% 29.77 in 5.6 mi West 2.3 mph - N/A   Scattered Clouds
7:00 PM 86 °F - 69 °F 49% 29.80 in 5 mi Calm Calm - -   Haze
7:00 PM 86.0 °F 90.4 °F 69.8 °F 58% 29.80 in 5.6 mi Calm Calm - N/A   Scattered Clouds
8:00 PM 84.2 °F 89.6 °F 71.6 °F 66% 29.83 in 5.0 mi NNE 1.2 mph - N/A   Unknown
9:00 PM 84.2 °F 89.6 °F 71.6 °F 66% 29.83 in 5.0 mi Calm Calm - N/A   Unknown
10:00 PM 82.4 °F 86.3 °F 69.8 °F 66% 29.83 in 5.0 mi SW 2.3 mph - N/A   Unknown